Time,TemperatureF,DewpointF,PressureIn,WindDirection,WindDirectionDegrees,WindSpeedMPH,WindSpeedGustMPH,Humidity,HourlyPrecipIn,Conditions,Clouds,dailyrainin,SoftwareType,DateUTC
2013-02-15 00:01:00,42.3,34.5,30.00,North,6,1.0,4.0,74,0.00,,,0.00,meteohub,2013-02-14 23:01:00,
2013-02-15 00:06:00,42.3,34.5,30.00,North,5,0.0,2.0,74,0.00,,,0.00,meteohub,2013-02-14 23:06:00,
2013-02-15 00:11:00,42.3,34.5,29.99,North,6,0.0,3.0,74,0.00,,,0.00,meteohub,2013-02-14 23:11:00,
2013-02-15 00:16:00,42.3,34.5,30.00,North,6,1.0,3.0,74,0.00,,,0.00,meteohub,2013-02-14 23:16:00,
2013-02-15 00:21:00,42.1,34.3,30.00,North,6,3.0,3.0,74,0.00,,,0.00,meteohub,2013-02-14 23:21:00,
2013-02-15 00:27:00,42.1,34.3,30.00,North,6,0.0,4.0,74,0.00,,,0.00,meteohub,2013-02-14 23:27:00,
2013-02-15 00:32:00,41.9,34.2,30.00,North,5,3.0,4.0,74,0.00,,,0.00,meteohub,2013-02-14 23:32:00,
2013-02-15 00:37:00,41.7,34.3,30.00,North,5,0.0,4.0,75,0.00,,,0.00,meteohub,2013-02-14 23:37:00,
2013-02-15 00:42:00,41.7,34.3,30.00,North,6,2.0,4.0,75,0.00,,,0.00,meteohub,2013-02-14 23:42:00,
2013-02-15 00:47:00,41.5,34.2,30.00,North,7,4.0,4.0,75,0.00,,,0.00,meteohub,2013-02-14 23:47:00,
2013-02-15 00:52:00,41.5,34.2,30.00,North,7,3.0,4.0,75,0.00,,,0.00,meteohub,2013-02-14 23:52:00,
2013-02-15 00:57:00,41.4,34.0,30.00,North,7,3.0,4.0,75,0.00,,,0.00,meteohub,2013-02-14 23:57:00,
2013-02-15 01:02:00,41.4,34.3,30.00,North,6,1.0,4.0,76,0.00,,,0.00,meteohub,2013-02-15 00:02:00,
2013-02-15 01:07:00,41.4,34.3,30.00,North,5,0.0,4.0,76,0.00,,,0.00,meteohub,2013-02-15 00:07:00,
2013-02-15 01:12:00,41.2,34.2,30.00,North,6,3.0,4.0,76,0.00,,,0.00,meteohub,2013-02-15 00:12:00,
2013-02-15 01:17:00,41.2,34.2,30.00,North,6,0.0,4.0,76,0.00,,,0.00,meteohub,2013-02-15 00:17:00,
2013-02-15 01:22:00,41.2,34.2,30.00,North,6,1.0,4.0,76,0.00,,,0.00,meteohub,2013-02-15 00:22:00,
2013-02-15 01:27:00,41.2,34.2,30.00,North,6,2.0,4.0,76,0.00,,,0.00,meteohub,2013-02-15 00:27:00,
2013-02-15 01:32:00,41.0,34.0,30.00,North,7,4.0,4.0,76,0.00,,,0.00,meteohub,2013-02-15 00:32:00,
2013-02-15 01:37:00,41.0,34.3,30.00,North,7,3.0,4.0,77,0.00,,,0.00,meteohub,2013-02-15 00:37:00,
2013-02-15 01:42:00,41.0,34.3,30.00,North,7,2.0,4.0,77,0.00,,,0.00,meteohub,2013-02-15 00:42:00,
2013-02-15 01:47:00,41.2,34.5,30.00,NNE,17,3.0,4.0,77,0.00,,,0.00,meteohub,2013-02-15 00:47:00,
2013-02-15 01:52:00,41.2,34.2,30.01,NNE,16,3.0,6.0,76,0.00,,,0.00,meteohub,2013-02-15 00:52:00,
2013-02-15 01:57:00,41.0,34.3,30.01,NNE,17,3.0,6.0,77,0.00,,,0.00,meteohub,2013-02-15 00:57:00,
2013-02-15 02:02:00,41.0,34.3,30.00,NNE,17,3.0,5.0,77,0.00,,,0.00,meteohub,2013-02-15 01:02:00,
2013-02-15 02:07:00,40.8,34.2,30.00,NNE,16,3.0,5.0,77,0.00,,,0.00,meteohub,2013-02-15 01:07:00,
2013-02-15 02:12:00,40.5,33.8,30.00,NNE,17,4.0,5.0,77,0.00,,,0.00,meteohub,2013-02-15 01:12:00,
2013-02-15 02:17:00,40.3,34.0,30.00,NNE,17,2.0,4.0,78,0.00,,,0.00,meteohub,2013-02-15 01:17:00,
2013-02-15 02:22:00,39.9,34.0,30.00,NNE,18,2.0,4.0,79,0.00,,,0.00,meteohub,2013-02-15 01:22:00,
2013-02-15 02:27:00,39.9,34.0,30.00,NNE,16,0.0,4.0,79,0.00,,,0.00,meteohub,2013-02-15 01:27:00,
2013-02-15 02:32:00,39.9,34.0,30.00,NNE,17,1.0,4.0,79,0.00,,,0.00,meteohub,2013-02-15 01:32:00,
2013-02-15 02:37:00,39.9,34.0,30.00,NNE,16,0.0,3.0,79,0.00,,,0.00,meteohub,2013-02-15 01:37:00,
2013-02-15 02:42:00,39.7,33.8,30.00,NNE,16,0.0,3.0,79,0.00,,,0.00,meteohub,2013-02-15 01:42:00,
2013-02-15 02:48:00,39.7,33.8,30.00,NNE,17,4.0,4.0,79,0.00,,,0.00,meteohub,2013-02-15 01:48:00,
2013-02-15 02:53:00,39.7,33.8,30.00,NNE,17,0.0,5.0,79,0.00,,,0.00,meteohub,2013-02-15 01:53:00,
2013-02-15 02:58:00,39.6,33.6,30.00,NNE,17,0.0,5.0,79,0.00,,,0.00,meteohub,2013-02-15 01:58:00,
2013-02-15 03:03:00,39.4,33.4,29.99,NNE,17,4.0,5.0,79,0.00,,,0.00,meteohub,2013-02-15 02:03:00,
2013-02-15 03:08:00,39.0,33.4,29.99,NNE,17,3.0,4.0,80,0.00,,,0.00,meteohub,2013-02-15 02:08:00,
2013-02-15 03:13:00,38.8,33.3,29.99,NNE,17,0.0,4.0,80,0.00,,,0.00,meteohub,2013-02-15 02:13:00,
2013-02-15 03:18:00,38.8,33.3,29.99,NNE,16,2.0,4.0,80,0.00,,,0.00,meteohub,2013-02-15 02:18:00,
2013-02-15 03:23:00,38.8,33.3,29.99,NNE,17,2.0,3.0,80,0.00,,,0.00,meteohub,2013-02-15 02:23:00,
2013-02-15 03:28:00,38.8,33.3,29.99,NNE,16,0.0,3.0,80,0.00,,,0.00,meteohub,2013-02-15 02:28:00,
2013-02-15 03:34:00,38.5,33.1,29.99,NNE,16,2.0,3.0,81,0.00,,,0.00,meteohub,2013-02-15 02:34:00,
2013-02-15 03:39:00,38.5,33.1,29.99,NNE,17,2.0,3.0,81,0.00,,,0.00,meteohub,2013-02-15 02:39:00,
2013-02-15 03:44:00,38.5,33.1,29.99,NNE,16,2.0,3.0,81,0.00,,,0.00,meteohub,2013-02-15 02:44:00,
2013-02-15 03:49:00,38.7,33.3,29.99,NNE,16,1.0,3.0,81,0.00,,,0.00,meteohub,2013-02-15 02:49:00,
2013-02-15 03:54:00,38.7,33.3,29.99,NNE,16,2.0,3.0,81,0.00,,,0.00,meteohub,2013-02-15 02:54:00,
2013-02-15 03:59:00,38.7,33.3,29.99,NNE,17,2.0,3.0,81,0.00,,,0.00,meteohub,2013-02-15 02:59:00,
2013-02-15 04:04:00,38.5,33.1,29.99,NNE,16,2.0,4.0,81,0.00,,,0.00,meteohub,2013-02-15 03:04:00,
2013-02-15 04:09:00,38.3,32.9,29.99,NNE,17,2.0,4.0,81,0.00,,,0.00,meteohub,2013-02-15 03:09:00,
2013-02-15 04:14:00,38.3,32.9,29.99,NNE,17,0.0,4.0,81,0.00,,,0.00,meteohub,2013-02-15 03:14:00,
2013-02-15 04:19:00,38.5,33.1,29.99,NNE,17,2.0,3.0,81,0.00,,,0.00,meteohub,2013-02-15 03:19:00,
2013-02-15 04:24:00,38.5,33.1,29.99,NNE,17,0.0,3.0,81,0.00,,,0.00,meteohub,2013-02-15 03:24:00,
2013-02-15 04:29:00,38.5,33.1,29.99,NNE,17,1.0,3.0,81,0.00,,,0.00,meteohub,2013-02-15 03:29:00,
2013-02-15 04:34:00,38.5,33.1,29.99,NNE,17,2.0,3.0,81,0.00,,,0.00,meteohub,2013-02-15 03:34:00,
2013-02-15 04:39:00,38.3,33.3,29.99,NNE,17,2.0,3.0,82,0.00,,,0.00,meteohub,2013-02-15 03:39:00,
2013-02-15 04:45:00,38.3,33.3,29.99,NNE,17,3.0,3.0,82,0.00,,,0.00,meteohub,2013-02-15 03:45:00,
2013-02-15 04:50:00,38.3,33.3,29.99,NNE,16,0.0,4.0,82,0.00,,,0.00,meteohub,2013-02-15 03:50:00,
2013-02-15 04:55:00,38.3,33.3,29.99,NNE,16,0.0,4.0,82,0.00,,,0.00,meteohub,2013-02-15 03:55:00,
2013-02-15 05:00:00,37.9,32.7,29.99,NNE,17,0.0,4.0,81,0.00,,,0.00,meteohub,2013-02-15 04:00:00,
2013-02-15 05:05:00,37.8,32.7,29.99,NNE,16,0.0,2.0,82,0.00,,,0.00,meteohub,2013-02-15 04:05:00,
2013-02-15 05:10:00,37.8,32.7,29.99,NNE,16,0.0,2.0,82,0.00,,,0.00,meteohub,2013-02-15 04:10:00,
2013-02-15 05:15:00,37.6,32.5,29.99,NNE,17,0.0,1.0,82,0.00,,,0.00,meteohub,2013-02-15 04:15:00,
2013-02-15 05:20:00,37.2,32.2,29.99,NNE,17,2.0,2.0,82,0.00,,,0.00,meteohub,2013-02-15 04:20:00,
2013-02-15 05:25:00,37.0,32.0,29.99,NNE,17,2.0,3.0,82,0.00,,,0.00,meteohub,2013-02-15 04:25:00,
2013-02-15 05:30:00,37.0,32.4,29.99,NNE,16,0.0,3.0,83,0.00,,,0.00,meteohub,2013-02-15 04:30:00,
2013-02-15 05:35:00,37.2,32.5,29.99,NNE,17,2.0,3.0,83,0.00,,,0.00,meteohub,2013-02-15 04:35:00,
2013-02-15 05:40:00,37.2,32.5,29.98,NNE,17,2.0,3.0,83,0.00,,,0.00,meteohub,2013-02-15 04:40:00,
2013-02-15 05:45:00,37.2,32.5,29.98,NNE,17,0.0,3.0,83,0.00,,,0.00,meteohub,2013-02-15 04:45:00,
2013-02-15 05:50:00,37.2,32.5,29.98,NNE,16,3.0,3.0,83,0.00,,,0.00,meteohub,2013-02-15 04:50:00,
2013-02-15 05:55:00,37.2,32.5,29.98,NNE,17,3.0,3.0,83,0.00,,,0.00,meteohub,2013-02-15 04:55:00,
2013-02-15 06:00:00,37.0,32.4,29.98,NNE,17,2.0,4.0,83,0.00,,,0.00,meteohub,2013-02-15 05:00:00,
2013-02-15 06:01:00,37.0,32.4,29.98,NNE,17,2.0,4.0,83,0.00,,,0.00,meteohub,2013-02-15 05:01:00,
2013-02-15 06:06:00,36.9,32.2,29.98,NNE,17,2.0,4.0,83,0.00,,,0.00,meteohub,2013-02-15 05:06:00,
2013-02-15 06:11:00,36.7,32.0,29.98,NNE,16,2.0,4.0,83,0.00,,,0.00,meteohub,2013-02-15 05:11:00,
2013-02-15 06:16:00,36.7,32.4,29.98,NNE,17,2.0,4.0,84,0.00,,,0.00,meteohub,2013-02-15 05:16:00,
2013-02-15 06:22:00,36.7,32.4,29.98,NNE,17,2.0,4.0,84,0.00,,,0.00,meteohub,2013-02-15 05:22:00,
2013-02-15 06:27:00,36.7,32.4,29.98,NNE,17,0.0,4.0,84,0.00,,,0.00,meteohub,2013-02-15 05:27:00,
2013-02-15 06:32:00,36.7,32.4,29.98,NNE,16,4.0,4.0,84,0.00,,,0.00,meteohub,2013-02-15 05:32:00,
2013-02-15 06:37:00,36.7,32.4,29.98,NNE,17,3.0,5.0,84,0.00,,,0.00,meteohub,2013-02-15 05:37:00,
2013-02-15 06:42:00,36.7,32.4,29.98,NNE,17,3.0,5.0,84,0.00,,,0.00,meteohub,2013-02-15 05:42:00,
2013-02-15 06:47:00,36.7,32.0,29.98,NNE,16,2.0,4.0,83,0.00,,,0.00,meteohub,2013-02-15 05:47:00,
2013-02-15 06:52:00,36.5,31.8,29.99,NNE,17,0.0,4.0,83,0.00,,,0.00,meteohub,2013-02-15 05:52:00,
2013-02-15 06:57:00,36.5,32.2,29.99,NNE,17,0.0,4.0,84,0.00,,,0.00,meteohub,2013-02-15 05:57:00,
2013-02-15 07:02:00,36.5,31.8,29.99,NNE,16,0.0,3.0,83,0.00,,,0.00,meteohub,2013-02-15 06:02:00,
2013-02-15 07:07:00,36.5,32.2,29.99,NNE,17,0.0,3.0,84,0.00,,,0.00,meteohub,2013-02-15 06:07:00,
2013-02-15 07:12:00,36.5,31.8,29.99,NNE,16,0.0,1.0,83,0.00,,,0.00,meteohub,2013-02-15 06:12:00,
2013-02-15 07:17:00,36.5,31.8,29.99,NNE,17,0.0,2.0,83,0.00,,,0.00,meteohub,2013-02-15 06:17:00,
2013-02-15 07:22:00,36.5,32.2,29.99,NNE,16,1.0,2.0,84,0.00,,,0.00,meteohub,2013-02-15 06:22:00,
2013-02-15 07:27:00,36.7,32.4,29.99,NNE,17,1.0,2.0,84,0.00,,,0.00,meteohub,2013-02-15 06:27:00,
2013-02-15 07:32:00,36.7,32.0,29.99,NNE,17,0.0,3.0,83,0.00,,,0.00,meteohub,2013-02-15 06:32:00,
2013-02-15 07:37:00,36.9,32.2,29.99,NNE,17,1.0,3.0,83,0.00,,,0.00,meteohub,2013-02-15 06:37:00,
2013-02-15 07:42:00,36.9,32.2,29.99,NNE,17,0.0,3.0,83,0.00,,,0.00,meteohub,2013-02-15 06:42:00,
2013-02-15 07:47:00,36.9,32.2,29.99,NNE,16,2.0,3.0,83,0.00,,,0.00,meteohub,2013-02-15 06:47:00,
2013-02-15 07:52:00,37.0,32.4,30.00,NNE,17,0.0,4.0,83,0.00,,,0.00,meteohub,2013-02-15 06:52:00,
2013-02-15 07:57:00,37.2,32.5,30.00,NNE,16,0.0,4.0,83,0.00,,,0.00,meteohub,2013-02-15 06:57:00,
2013-02-15 08:02:00,37.6,32.9,30.00,NNE,16,2.0,4.0,83,0.00,,,0.00,meteohub,2013-02-15 07:02:00,
2013-02-15 08:08:00,37.8,32.7,30.00,NNE,16,2.0,3.0,82,0.00,,,0.00,meteohub,2013-02-15 07:08:00,
2013-02-15 08:13:00,37.9,32.9,30.00,NNE,16,2.0,4.0,82,0.00,,,0.00,meteohub,2013-02-15 07:13:00,
2013-02-15 08:18:00,38.1,33.1,30.00,NNE,16,0.0,4.0,82,0.00,,,0.00,meteohub,2013-02-15 07:18:00,
2013-02-15 08:23:00,38.1,33.1,30.00,NNE,17,2.0,4.0,82,0.00,,,0.00,meteohub,2013-02-15 07:23:00,
2013-02-15 08:28:00,38.1,32.7,30.00,NNE,17,0.0,3.0,81,0.00,,,0.00,meteohub,2013-02-15 07:28:00,
2013-02-15 08:33:00,38.1,33.1,30.00,NNE,17,3.0,3.0,82,0.00,,,0.00,meteohub,2013-02-15 07:33:00,
2013-02-15 08:38:00,38.5,33.1,30.00,NNE,17,2.0,3.0,81,0.00,,,0.00,meteohub,2013-02-15 07:38:00,
2013-02-15 08:43:00,38.5,33.1,30.01,NNE,16,2.0,4.0,81,0.00,,,0.00,meteohub,2013-02-15 07:43:00,
2013-02-15 08:48:00,38.8,33.4,30.01,NNE,17,2.0,4.0,81,0.00,,,0.00,meteohub,2013-02-15 07:48:00,
2013-02-15 08:53:00,38.8,33.3,30.01,NNE,17,1.0,4.0,80,0.00,,,0.00,meteohub,2013-02-15 07:53:00,
2013-02-15 08:58:00,39.0,33.4,30.01,NNE,17,2.0,4.0,80,0.00,,,0.00,meteohub,2013-02-15 07:58:00,
2013-02-15 09:03:00,39.2,33.8,30.01,NNE,17,3.0,4.0,81,0.00,,,0.00,meteohub,2013-02-15 08:03:00,
2013-02-15 09:08:00,39.4,33.8,30.01,NNE,16,1.0,4.0,80,0.00,,,0.00,meteohub,2013-02-15 08:08:00,
2013-02-15 09:13:00,39.7,34.2,30.01,NNE,17,2.0,4.0,80,0.00,,,0.00,meteohub,2013-02-15 08:13:00,
2013-02-15 09:18:00,39.7,33.8,30.01,NNE,17,1.0,4.0,79,0.00,,,0.00,meteohub,2013-02-15 08:18:00,
2013-02-15 09:23:00,39.9,34.0,30.01,NNE,17,2.0,4.0,79,0.00,,,0.00,meteohub,2013-02-15 08:23:00,
2013-02-15 09:28:00,40.3,34.3,30.01,NNE,17,2.0,4.0,79,0.00,,,0.00,meteohub,2013-02-15 08:28:00,
2013-02-15 09:34:00,40.3,34.0,30.01,NNE,17,2.0,5.0,78,0.00,,,0.00,meteohub,2013-02-15 08:34:00,
2013-02-15 09:39:00,40.6,34.3,30.01,NNE,16,3.0,5.0,78,0.00,,,0.00,meteohub,2013-02-15 08:39:00,
2013-02-15 09:44:00,40.8,34.5,30.01,NNE,16,0.0,5.0,78,0.00,,,0.00,meteohub,2013-02-15 08:44:00,
2013-02-15 09:49:00,41.2,34.5,30.01,NNE,17,0.0,5.0,77,0.00,,,0.00,meteohub,2013-02-15 08:49:00,
2013-02-15 09:54:00,41.4,34.7,30.01,NNE,16,4.0,5.0,77,0.00,,,0.00,meteohub,2013-02-15 08:54:00,
2013-02-15 09:59:00,41.5,34.9,30.01,NNE,17,3.0,6.0,77,0.00,,,0.00,meteohub,2013-02-15 08:59:00,
2013-02-15 10:04:00,41.7,34.7,30.01,NNE,16,3.0,6.0,76,0.00,,,0.00,meteohub,2013-02-15 09:04:00,
2013-02-15 10:09:00,41.9,34.9,30.01,NNE,17,3.0,6.0,76,0.00,,,0.00,meteohub,2013-02-15 09:09:00,
2013-02-15 10:14:00,42.3,34.9,30.01,NNE,22,6.0,6.0,75,0.00,,,0.00,meteohub,2013-02-15 09:14:00,
2013-02-15 10:19:00,42.6,34.9,30.01,NNE,23,2.0,5.0,74,0.00,,,0.00,meteohub,2013-02-15 09:19:00,
2013-02-15 10:24:00,42.8,35.1,30.01,NNE,23,5.0,6.0,74,0.00,,,0.00,meteohub,2013-02-15 09:24:00,
2013-02-15 10:29:00,43.0,34.9,30.01,NNE,23,3.0,6.0,73,0.00,,,0.00,meteohub,2013-02-15 09:29:00,
2013-02-15 10:34:00,43.3,35.2,30.01,NNE,23,0.0,5.0,73,0.00,,,0.00,meteohub,2013-02-15 09:34:00,
2013-02-15 10:39:00,44.2,36.1,30.01,NNE,23,2.0,5.0,73,0.00,,,0.00,meteohub,2013-02-15 09:39:00,
2013-02-15 10:45:00,44.6,35.8,30.01,NNE,20,7.0,7.0,71,0.00,,,0.00,meteohub,2013-02-15 09:45:00,
2013-02-15 10:50:00,44.2,35.1,30.01,NW,319,4.0,4.0,70,0.00,,,0.00,meteohub,2013-02-15 09:50:00,
2013-02-15 10:55:00,44.1,35.2,30.01,WNW,292,2.0,7.0,71,0.00,,,0.00,meteohub,2013-02-15 09:55:00,
2013-02-15 11:00:00,44.8,36.0,30.01,WNW,292,0.0,7.0,71,0.00,,,0.00,meteohub,2013-02-15 10:00:00,
2013-02-15 11:05:00,45.1,35.6,30.01,WNW,294,0.0,6.0,69,0.00,,,0.00,meteohub,2013-02-15 10:05:00,
2013-02-15 11:10:00,45.1,36.0,30.01,WNW,296,1.0,6.0,70,0.00,,,0.00,meteohub,2013-02-15 10:10:00,
2013-02-15 11:15:00,45.3,36.1,30.01,WNW,294,3.0,6.0,70,0.00,,,0.00,meteohub,2013-02-15 10:15:00,
2013-02-15 11:20:00,45.7,36.1,30.01,NW,305,3.0,6.0,69,0.00,,,0.00,meteohub,2013-02-15 10:20:00,
2013-02-15 11:25:00,46.0,36.5,30.00,ENE,57,5.0,5.0,69,0.00,,,0.00,meteohub,2013-02-15 10:25:00,
2013-02-15 11:30:00,46.6,37.0,30.00,ENE,57,1.0,6.0,69,0.00,,,0.00,meteohub,2013-02-15 10:30:00,
2013-02-15 11:35:00,46.8,36.7,30.00,NE,56,0.0,7.0,68,0.00,,,0.00,meteohub,2013-02-15 10:35:00,
2013-02-15 11:40:00,46.9,36.9,30.00,NE,54,2.0,7.0,68,0.00,,,0.00,meteohub,2013-02-15 10:40:00,
2013-02-15 11:45:00,47.7,37.2,30.00,ENE,58,0.0,4.0,67,0.00,,,0.00,meteohub,2013-02-15 10:45:00,
2013-02-15 11:50:00,48.4,37.6,30.00,ENE,58,0.0,4.0,66,0.00,,,0.00,meteohub,2013-02-15 10:50:00,
2013-02-15 11:55:00,48.4,36.7,29.99,NE,45,1.0,4.0,64,0.00,,,0.00,meteohub,2013-02-15 10:55:00,
2013-02-15 12:00:00,48.2,37.0,29.99,NE,45,2.0,4.0,65,0.00,,,0.00,meteohub,2013-02-15 11:00:00,
2013-02-15 12:05:00,48.6,37.8,29.99,NE,40,0.0,3.0,66,0.00,,,0.00,meteohub,2013-02-15 11:05:00,
2013-02-15 12:10:00,50.5,37.9,29.99,NE,40,0.0,3.0,62,0.00,,,0.00,meteohub,2013-02-15 11:10:00,
2013-02-15 12:15:00,50.4,37.8,29.99,NE,40,0.0,3.0,62,0.00,,,0.00,meteohub,2013-02-15 11:15:00,
2013-02-15 12:20:00,50.9,37.9,29.99,NE,40,0.0,3.0,61,0.00,,,0.00,meteohub,2013-02-15 11:20:00,
2013-02-15 12:25:00,50.9,37.0,29.98,NE,45,1.0,3.0,59,0.00,,,0.00,meteohub,2013-02-15 11:25:00,
2013-02-15 12:31:00,50.5,37.6,29.98,NE,45,1.0,4.0,61,0.00,,,0.00,meteohub,2013-02-15 11:31:00,
2013-02-15 12:36:00,51.3,37.8,29.98,NE,45,1.0,4.0,60,0.00,,,0.00,meteohub,2013-02-15 11:36:00,
2013-02-15 12:41:00,50.5,36.7,29.97,WNW,300,2.0,4.0,59,0.00,,,0.00,meteohub,2013-02-15 11:41:00,
2013-02-15 12:46:00,51.1,37.8,29.97,NW,310,3.0,4.0,60,0.00,,,0.00,meteohub,2013-02-15 11:46:00,
2013-02-15 12:51:00,51.1,37.2,29.97,NW,323,2.0,4.0,59,0.00,,,0.00,meteohub,2013-02-15 11:51:00,
2013-02-15 12:56:00,51.8,37.6,29.97,NW,323,0.0,5.0,58,0.00,,,0.00,meteohub,2013-02-15 11:56:00,
2013-02-15 13:01:00,53.1,37.4,29.97,NW,323,0.0,5.0,55,0.00,,,0.00,meteohub,2013-02-15 12:01:00,
2013-02-15 13:06:00,52.5,36.9,29.97,NW,323,0.0,5.0,55,0.00,,,0.00,meteohub,2013-02-15 12:06:00,
2013-02-15 13:11:00,52.9,37.6,29.97,WNW,303,5.0,5.0,56,0.00,,,0.00,meteohub,2013-02-15 12:11:00,
2013-02-15 13:16:00,51.6,36.5,29.97,West,272,1.0,6.0,56,0.00,,,0.00,meteohub,2013-02-15 12:16:00,
2013-02-15 13:21:00,52.7,37.9,29.97,West,271,0.0,6.0,57,0.00,,,0.00,meteohub,2013-02-15 12:21:00,
2013-02-15 13:26:00,53.2,36.5,29.97,West,262,3.0,6.0,53,0.00,,,0.00,meteohub,2013-02-15 12:26:00,
2013-02-15 13:31:00,52.9,36.1,29.96,WSW,252,1.0,6.0,53,0.00,,,0.00,meteohub,2013-02-15 12:31:00,
2013-02-15 13:36:00,54.1,36.9,29.96,WSW,252,2.0,6.0,52,0.00,,,0.00,meteohub,2013-02-15 12:36:00,
2013-02-15 13:41:00,52.9,36.1,29.96,WSW,257,3.0,5.0,53,0.00,,,0.00,meteohub,2013-02-15 12:41:00,
2013-02-15 13:46:00,52.9,35.2,29.96,WSW,255,2.0,6.0,51,0.00,,,0.00,meteohub,2013-02-15 12:46:00,
2013-02-15 13:51:00,53.4,35.8,29.96,WSW,255,1.0,6.0,51,0.00,,,0.00,meteohub,2013-02-15 12:51:00,
2013-02-15 13:56:00,53.4,35.8,29.96,WSW,255,3.0,6.0,51,0.00,,,0.00,meteohub,2013-02-15 12:56:00,
2013-02-15 14:01:00,53.8,36.5,29.96,WSW,258,0.0,6.0,52,0.00,,,0.00,meteohub,2013-02-15 13:01:00,
2013-02-15 14:06:00,53.6,35.4,29.96,WSW,248,7.0,7.0,50,0.00,,,0.00,meteohub,2013-02-15 13:06:00,
2013-02-15 14:11:00,53.8,35.6,29.96,WSW,255,4.0,9.0,50,0.00,,,0.00,meteohub,2013-02-15 13:11:00,
2013-02-15 14:17:00,53.4,36.3,29.95,WSW,255,1.0,9.0,52,0.00,,,0.00,meteohub,2013-02-15 13:17:00,
2013-02-15 14:22:00,53.4,36.3,29.95,West,262,2.0,9.0,52,0.00,,,0.00,meteohub,2013-02-15 13:22:00,
2013-02-15 14:27:00,54.3,36.5,29.95,West,262,1.0,7.0,51,0.00,,,0.00,meteohub,2013-02-15 13:27:00,
2013-02-15 14:32:00,54.3,36.1,29.95,WSW,253,4.0,7.0,50,0.00,,,0.00,meteohub,2013-02-15 13:32:00,
2013-02-15 14:37:00,54.3,35.1,29.95,WSW,250,0.0,7.0,48,0.00,,,0.00,meteohub,2013-02-15 13:37:00,
2013-02-15 14:42:00,53.8,34.5,29.95,West,281,6.0,9.0,48,0.00,,,0.00,meteohub,2013-02-15 13:42:00,
2013-02-15 14:47:00,53.6,33.8,29.95,West,277,4.0,9.0,47,0.00,,,0.00,meteohub,2013-02-15 13:47:00,
2013-02-15 14:52:00,53.4,34.2,29.95,West,280,5.0,9.0,48,0.00,,,0.00,meteohub,2013-02-15 13:52:00,
2013-02-15 14:57:00,53.6,34.3,29.95,West,280,2.0,9.0,48,0.00,,,0.00,meteohub,2013-02-15 13:57:00,
2013-02-15 15:02:00,53.4,33.6,29.95,West,280,0.0,8.0,47,0.00,,,0.00,meteohub,2013-02-15 14:02:00,
2013-02-15 15:07:00,53.4,33.6,29.95,West,280,2.0,8.0,47,0.00,,,0.00,meteohub,2013-02-15 14:07:00,
2013-02-15 15:12:00,53.6,34.3,29.95,West,280,2.0,6.0,48,0.00,,,0.00,meteohub,2013-02-15 14:12:00,
2013-02-15 15:17:00,53.8,34.0,29.95,West,280,0.0,6.0,47,0.00,,,0.00,meteohub,2013-02-15 14:17:00,
2013-02-15 15:22:00,54.0,34.2,29.95,West,274,3.0,6.0,47,0.00,,,0.00,meteohub,2013-02-15 14:22:00,
2013-02-15 15:27:00,54.3,34.0,29.95,West,274,1.0,5.0,46,0.00,,,0.00,meteohub,2013-02-15 14:27:00,
2013-02-15 15:33:00,54.5,34.2,29.95,West,274,0.0,5.0,46,0.00,,,0.00,meteohub,2013-02-15 14:33:00,
2013-02-15 15:38:00,54.7,34.3,29.95,West,274,0.0,4.0,46,0.00,,,0.00,meteohub,2013-02-15 14:38:00,
2013-02-15 15:43:00,55.0,35.2,29.95,West,271,0.0,3.0,47,0.00,,,0.00,meteohub,2013-02-15 14:43:00,
2013-02-15 15:48:00,55.0,35.8,29.95,SSW,199,2.0,4.0,48,0.00,,,0.00,meteohub,2013-02-15 14:48:00,
2013-02-15 15:53:00,54.7,36.0,29.95,SSW,205,6.0,7.0,49,0.00,,,0.00,meteohub,2013-02-15 14:53:00,
2013-02-15 15:58:00,54.7,36.0,29.94,SSW,204,4.0,8.0,49,0.00,,,0.00,meteohub,2013-02-15 14:58:00,
2013-02-15 16:03:00,54.3,36.5,29.95,SSW,196,5.0,8.0,51,0.00,,,0.00,meteohub,2013-02-15 15:03:00,
2013-02-15 16:08:00,54.0,37.2,29.95,SSW,196,4.0,11.0,53,0.00,,,0.00,meteohub,2013-02-15 15:08:00,
2013-02-15 16:13:00,53.6,37.8,29.94,South,187,2.0,11.0,55,0.00,,,0.00,meteohub,2013-02-15 15:13:00,
2013-02-15 16:18:00,53.6,37.8,29.94,SSW,196,9.0,11.0,55,0.00,,,0.00,meteohub,2013-02-15 15:18:00,
2013-02-15 16:23:00,53.4,37.6,29.95,SSW,208,2.0,11.0,55,0.00,,,0.00,meteohub,2013-02-15 15:23:00,
2013-02-15 16:28:00,53.4,38.1,29.94,South,186,9.0,11.0,56,0.00,,,0.00,meteohub,2013-02-15 15:28:00,
2013-02-15 16:34:00,53.1,37.8,29.94,South,172,6.0,11.0,56,0.00,,,0.00,meteohub,2013-02-15 15:34:00,
2013-02-15 16:39:00,53.1,37.8,29.94,SSW,192,1.0,11.0,56,0.00,,,0.00,meteohub,2013-02-15 15:39:00,
2013-02-15 16:44:00,53.2,37.9,29.94,SSW,209,5.0,11.0,56,0.00,,,0.00,meteohub,2013-02-15 15:44:00,
2013-02-15 16:49:00,53.2,37.9,29.94,SSE,162,5.0,10.0,56,0.00,,,0.00,meteohub,2013-02-15 15:49:00,
2013-02-15 16:54:00,53.1,38.3,29.95,South,170,4.0,7.0,57,0.00,,,0.00,meteohub,2013-02-15 15:54:00,
2013-02-15 16:59:00,52.9,38.5,29.95,South,179,5.0,9.0,58,0.00,,,0.00,meteohub,2013-02-15 15:59:00,
2013-02-15 17:04:00,52.5,38.1,29.95,South,178,10.0,10.0,58,0.00,,,0.00,meteohub,2013-02-15 16:04:00,
2013-02-15 17:09:00,52.2,37.8,29.95,SSW,201,6.0,11.0,58,0.00,,,0.00,meteohub,2013-02-15 16:09:00,
2013-02-15 17:14:00,52.0,38.1,29.95,South,188,1.0,11.0,59,0.00,,,0.00,meteohub,2013-02-15 16:14:00,
2013-02-15 17:19:00,52.0,37.6,29.95,South,177,4.0,11.0,58,0.00,,,0.00,meteohub,2013-02-15 16:19:00,
2013-02-15 17:24:00,51.6,37.8,29.95,South,180,4.0,10.0,59,0.00,,,0.00,meteohub,2013-02-15 16:24:00,
2013-02-15 17:29:00,51.6,37.8,29.95,SSW,192,2.0,9.0,59,0.00,,,0.00,meteohub,2013-02-15 16:29:00,
2013-02-15 17:34:00,51.4,37.6,29.95,South,187,2.0,9.0,59,0.00,,,0.00,meteohub,2013-02-15 16:34:00,
2013-02-15 17:39:00,51.3,37.8,29.95,South,182,0.0,7.0,60,0.00,,,0.00,meteohub,2013-02-15 16:39:00,
2013-02-15 17:44:00,51.1,37.8,29.95,SSW,192,5.0,7.0,60,0.00,,,0.00,meteohub,2013-02-15 16:44:00,
2013-02-15 17:50:00,50.9,37.9,29.95,SSW,192,3.0,10.0,61,0.00,,,0.00,meteohub,2013-02-15 16:50:00,
2013-02-15 17:55:00,50.7,37.8,29.95,SSW,193,4.0,10.0,61,0.00,,,0.00,meteohub,2013-02-15 16:55:00,
2013-02-15 18:00:00,50.5,37.6,29.95,SSW,199,4.0,10.0,61,0.00,,,0.00,meteohub,2013-02-15 17:00:00,
2013-02-15 18:05:00,50.4,37.4,29.96,South,184,4.0,10.0,61,0.00,,,0.00,meteohub,2013-02-15 17:05:00,
2013-02-15 18:10:00,50.4,37.8,29.96,South,177,2.0,10.0,62,0.00,,,0.00,meteohub,2013-02-15 17:10:00,
2013-02-15 18:15:00,50.2,37.6,29.96,South,181,4.0,10.0,62,0.00,,,0.00,meteohub,2013-02-15 17:15:00,
2013-02-15 18:20:00,49.8,37.8,29.96,South,182,3.0,6.0,63,0.00,,,0.00,meteohub,2013-02-15 17:20:00,
2013-02-15 18:25:00,49.6,37.6,29.96,South,184,0.0,6.0,63,0.00,,,0.00,meteohub,2013-02-15 17:25:00,
2013-02-15 18:30:00,49.6,37.6,29.96,South,184,2.0,6.0,63,0.00,,,0.00,meteohub,2013-02-15 17:30:00,
2013-02-15 18:35:00,49.6,37.9,29.96,South,184,1.0,6.0,64,0.00,,,0.00,meteohub,2013-02-15 17:35:00,
2013-02-15 18:40:00,49.6,37.9,29.96,South,184,2.0,6.0,64,0.00,,,0.00,meteohub,2013-02-15 17:40:00,
2013-02-15 18:45:00,49.5,37.8,29.96,South,184,3.0,4.0,64,0.00,,,0.00,meteohub,2013-02-15 17:45:00,
2013-02-15 18:50:00,49.5,38.1,29.96,South,184,0.0,4.0,65,0.00,,,0.00,meteohub,2013-02-15 17:50:00,
2013-02-15 18:55:00,49.3,37.9,29.96,South,184,0.0,4.0,65,0.00,,,0.00,meteohub,2013-02-15 17:55:00,
2013-02-15 19:00:00,49.3,37.9,29.96,South,184,0.0,4.0,65,0.00,,,0.00,meteohub,2013-02-15 18:00:00,
2013-02-15 19:05:00,49.1,38.3,29.96,South,184,0.0,4.0,66,0.00,,,0.00,meteohub,2013-02-15 18:05:00,
2013-02-15 19:10:00,48.9,38.1,29.97,South,184,0.0,3.0,66,0.00,,,0.00,meteohub,2013-02-15 18:10:00,
2013-02-15 19:15:00,48.7,37.9,29.97,South,184,0.0,3.0,66,0.00,,,0.00,meteohub,2013-02-15 18:15:00,
2013-02-15 19:20:00,48.7,38.3,29.97,South,184,0.0,2.0,67,0.00,,,0.00,meteohub,2013-02-15 18:20:00,
2013-02-15 19:26:00,48.7,38.3,29.97,South,184,0.0,0.0,67,0.00,,,0.00,meteohub,2013-02-15 18:26:00,
2013-02-15 19:31:00,48.7,38.3,29.97,South,184,0.0,2.0,67,0.00,,,0.00,meteohub,2013-02-15 18:31:00,
2013-02-15 19:36:00,48.7,38.3,29.97,South,184,2.0,2.0,67,0.00,,,0.00,meteohub,2013-02-15 18:36:00,
2013-02-15 19:41:00,48.7,37.9,29.97,South,184,1.0,3.0,66,0.00,,,0.00,meteohub,2013-02-15 18:41:00,
2013-02-15 19:46:00,48.7,37.9,29.97,South,184,0.0,3.0,66,0.00,,,0.00,meteohub,2013-02-15 18:46:00,
2013-02-15 19:51:00,48.7,37.9,29.97,South,184,1.0,3.0,66,0.00,,,0.00,meteohub,2013-02-15 18:51:00,
2013-02-15 19:56:00,48.7,37.9,29.97,South,184,2.0,2.0,66,0.00,,,0.00,meteohub,2013-02-15 18:56:00,
2013-02-15 20:01:00,48.7,37.9,29.97,South,184,0.0,2.0,66,0.00,,,0.00,meteohub,2013-02-15 19:01:00,
2013-02-15 20:06:00,48.7,37.9,29.97,South,184,0.0,2.0,66,0.00,,,0.00,meteohub,2013-02-15 19:06:00,
2013-02-15 20:11:00,48.7,38.3,29.97,South,184,1.0,2.0,67,0.00,,,0.00,meteohub,2013-02-15 19:11:00,
2013-02-15 20:16:00,48.9,38.5,29.97,South,184,0.0,2.0,67,0.00,,,0.00,meteohub,2013-02-15 19:16:00,
2013-02-15 20:21:00,48.9,38.1,29.97,South,184,2.0,2.0,66,0.00,,,0.00,meteohub,2013-02-15 19:21:00,
2013-02-15 20:26:00,48.9,38.1,29.96,South,184,2.0,3.0,66,0.00,,,0.00,meteohub,2013-02-15 19:26:00,
2013-02-15 20:31:00,48.9,38.5,29.96,South,184,1.0,3.0,67,0.00,,,0.00,meteohub,2013-02-15 19:31:00,
2013-02-15 20:36:00,48.9,38.5,29.97,South,184,2.0,3.0,67,0.00,,,0.00,meteohub,2013-02-15 19:36:00,
2013-02-15 20:42:00,48.7,38.3,29.97,South,184,3.0,3.0,67,0.00,,,0.00,meteohub,2013-02-15 19:42:00,
2013-02-15 20:47:00,48.7,38.7,29.97,South,184,0.0,3.0,68,0.00,,,0.00,meteohub,2013-02-15 19:47:00,
2013-02-15 20:52:00,48.7,38.7,29.97,South,184,0.0,3.0,68,0.00,,,0.00,meteohub,2013-02-15 19:52:00,
2013-02-15 20:57:00,48.7,38.7,29.97,South,184,0.0,3.0,68,0.00,,,0.00,meteohub,2013-02-15 19:57:00,
2013-02-15 21:02:00,48.0,37.9,29.97,South,185,2.0,2.0,68,0.00,,,0.00,meteohub,2013-02-15 20:02:00,
2013-02-15 21:07:00,47.7,37.9,29.97,South,184,0.0,3.0,69,0.00,,,0.00,meteohub,2013-02-15 20:07:00,
2013-02-15 21:12:00,47.3,37.9,29.98,South,184,0.0,3.0,70,0.00,,,0.00,meteohub,2013-02-15 20:12:00,
2013-02-15 21:17:00,46.9,38.1,29.98,South,184,1.0,2.0,71,0.00,,,0.00,meteohub,2013-02-15 20:17:00,
2013-02-15 21:22:00,46.4,37.6,29.98,South,184,2.0,4.0,71,0.00,,,0.00,meteohub,2013-02-15 20:22:00,
2013-02-15 21:27:00,45.9,37.4,29.98,South,184,2.0,4.0,72,0.00,,,0.00,meteohub,2013-02-15 20:27:00,
2013-02-15 21:33:00,45.7,37.6,29.98,South,184,0.0,4.0,73,0.00,,,0.00,meteohub,2013-02-15 20:33:00,
2013-02-15 21:38:00,45.5,37.8,29.98,South,184,0.0,4.0,74,0.00,,,0.00,meteohub,2013-02-15 20:38:00,
2013-02-15 21:43:00,45.5,37.8,29.98,South,184,0.0,3.0,74,0.00,,,0.00,meteohub,2013-02-15 20:43:00,
2013-02-15 21:48:00,45.7,37.9,29.98,South,184,0.0,2.0,74,0.00,,,0.00,meteohub,2013-02-15 20:48:00,
2013-02-15 21:53:00,45.7,37.9,29.98,South,184,0.0,1.0,74,0.00,,,0.00,meteohub,2013-02-15 20:53:00,
2013-02-15 21:58:00,45.7,37.9,29.98,South,184,0.0,0.0,74,0.00,,,0.00,meteohub,2013-02-15 20:58:00,
2013-02-15 22:03:00,45.9,38.1,29.98,South,184,1.0,0.0,74,0.00,,,0.00,meteohub,2013-02-15 21:03:00,
2013-02-15 22:08:00,46.0,38.3,29.98,South,184,3.0,3.0,74,0.00,,,0.00,meteohub,2013-02-15 21:08:00,
2013-02-15 22:13:00,46.0,37.9,29.98,South,184,0.0,4.0,73,0.00,,,0.00,meteohub,2013-02-15 21:13:00,
2013-02-15 22:18:00,46.0,37.9,29.98,South,184,0.0,4.0,73,0.00,,,0.00,meteohub,2013-02-15 21:18:00,
2013-02-15 22:23:00,46.2,38.1,29.98,South,184,0.0,4.0,73,0.00,,,0.00,meteohub,2013-02-15 21:23:00,
2013-02-15 22:28:00,46.2,38.1,29.98,South,184,0.0,3.0,73,0.00,,,0.00,meteohub,2013-02-15 21:28:00,
2013-02-15 22:33:00,46.2,37.8,29.98,South,182,2.0,3.0,72,0.00,,,0.00,meteohub,2013-02-15 21:33:00,
2013-02-15 22:38:00,46.2,37.8,29.98,South,182,3.0,3.0,72,0.00,,,0.00,meteohub,2013-02-15 21:38:00,
2013-02-15 22:43:00,46.2,37.8,29.98,South,182,3.0,3.0,72,0.00,,,0.00,meteohub,2013-02-15 21:43:00,
2013-02-15 22:48:00,46.2,37.8,29.98,South,181,0.0,4.0,72,0.00,,,0.00,meteohub,2013-02-15 21:48:00,
2013-02-15 22:53:00,46.0,37.6,29.98,South,182,1.0,4.0,72,0.00,,,0.00,meteohub,2013-02-15 21:53:00,
2013-02-15 22:58:00,46.0,37.6,29.98,South,182,0.0,4.0,72,0.00,,,0.00,meteohub,2013-02-15 21:58:00,
2013-02-15 23:04:00,46.0,37.6,29.98,South,181,0.0,3.0,72,0.00,,,0.00,meteohub,2013-02-15 22:04:00,
2013-02-15 23:09:00,45.9,37.8,29.98,South,182,0.0,3.0,73,0.00,,,0.00,meteohub,2013-02-15 22:09:00,
2013-02-15 23:14:00,45.9,37.8,29.99,South,181,0.0,2.0,73,0.00,,,0.00,meteohub,2013-02-15 22:14:00,
2013-02-15 23:19:00,45.7,37.6,29.99,South,181,0.0,2.0,73,0.00,,,0.00,meteohub,2013-02-15 22:19:00,
2013-02-15 23:24:00,45.5,37.4,29.99,South,182,2.0,2.0,73,0.00,,,0.00,meteohub,2013-02-15 22:24:00,
2013-02-15 23:29:00,45.1,37.4,29.99,South,181,2.0,2.0,74,0.00,,,0.00,meteohub,2013-02-15 22:29:00,
2013-02-15 23:34:00,45.0,37.2,29.99,South,182,1.0,3.0,74,0.00,,,0.00,meteohub,2013-02-15 22:34:00,
2013-02-15 23:39:00,44.8,37.0,29.99,South,181,0.0,3.0,74,0.00,,,0.00,meteohub,2013-02-15 22:39:00,
2013-02-15 23:44:00,44.6,37.2,29.99,South,182,0.0,3.0,75,0.00,,,0.00,meteohub,2013-02-15 22:44:00,
2013-02-15 23:49:00,44.4,37.0,29.99,South,182,0.0,3.0,75,0.00,,,0.00,meteohub,2013-02-15 22:49:00,
2013-02-15 23:55:00,44.4,37.4,29.99,South,182,0.0,3.0,76,0.00,,,0.00,meteohub,2013-02-15 22:55:00,